Weather History for Chillicothe, MO

Change the Weather History Date:

Wednesday, December 5, 2012

  Actual Average (KIRK) Record (KIRK)
Temperature  
Mean Temperature 42 °F 32 °F  
Max Temperature 55 °F 40 °F 68 °F (1975)
Min Temperature 28 °F 23 °F 0 °F (1928)
Degree Days  
Heating Degree Days 24 33  
Month to date heating degree days 163  
Since 1 July heating degree days 1384  
Cooling Degree Days 0 0  
Month to date cooling degree days 0  
Year to date cooling degree days 939  
Moisture  
Dew Point 30 °F    
Average Humidity 61    
Maximum Humidity 82    
Minimum Humidity 40    
Precipitation  
Precipitation 0.00 in 0.06 in 1.17 in (1982)
Month to date precipitation 0.33  
Year to date precipitation 37.89  
Sea Level Pressure  
Sea Level Pressure 30.27 in    
Wind  
Wind Speed 4 mph (SE)    
Max Wind Speed 10 mph    
Max Gust Speed -    
T = Trace of Precipitation, MM = Missing Value Source: NWS Daily Summary

Daily Weather History Graph

Daily Weather History Graph

Search for Another Location

Airport:

Trip Planner

Search our weather history database for the weather conditions in past years. The results will help you decide how hot, cold, wet, or windy it might be!

Date:

Astronomy

Dec. 05, 2012 Rise Set
Actual Time 7:20 AM CST 4:49 PM CST
Civil Twilight 6:50 AM CST 5:19 PM CST
Nautical Twilight 6:16 AM CST 5:53 PM CST
Astronomical Twilight 5:44 AM CST 6:25 PM CST
Moon 11:39 PM CST (12/5) 11:45 AM CST (12/5)
Length of Visible Light 10h 28m
Length of Day
9h 28m
Waning Gibbous, 59% of the Moon is Illuminated
Dec 5
Waning Gibbous
Dec 6
Last Quarter
Dec 13
New
Dec 19
First Quarter
Dec 28
Full

Hourly Weather History & Observations

Time (CST) Temp. Windchill Dew Point Humidity Pressure Visibility Wind Dir Wind Speed Gust Speed Precip Events Conditions
12:52 AM 32.0 °F - 26.1 °F 79% 30.35 in - Calm Calm - N/A   Unknown
1:52 AM 32.0 °F 28.7 °F 25.0 °F 75% 30.37 in - North 3.5 mph - N/A   Unknown
2:52 AM 30.9 °F 27.5 °F 25.0 °F 79% 30.38 in - North 3.5 mph - N/A   Unknown
3:52 AM 33.1 °F - 25.0 °F 72% 30.37 in - Calm Calm - N/A   Unknown
4:52 AM 36.0 °F - 26.1 °F 67% 30.37 in - Calm Calm - N/A   Unknown
5:52 AM 30.0 °F - 24.1 °F 79% 30.39 in - Calm Calm - N/A   Unknown
6:52 AM 28.9 °F - 24.1 °F 82% 30.40 in - Calm Calm - N/A   Unknown
8:52 AM 37.9 °F 33.5 °F 28.0 °F 68% 30.39 in - ESE 5.8 mph - N/A   Unknown
9:52 AM 41.0 °F 37.1 °F 30.0 °F 65% 30.38 in - ESE 5.8 mph - N/A   Unknown
10:52 AM 46.0 °F 41.4 °F 30.9 °F 56% 30.37 in - ESE 9.2 mph - N/A   Unknown
11:52 AM 48.9 °F - 33.1 °F 54% 30.33 in - ESE 5.8 mph - N/A   Unknown
12:52 PM 52.0 °F - 33.1 °F 49% 30.29 in - ESE 8.1 mph - N/A   Unknown
1:52 PM 54.0 °F - 33.1 °F 45% 30.25 in - SSE 8.1 mph - N/A   Unknown
2:52 PM 55.9 °F - 34.0 °F 44% 30.22 in - SE 9.2 mph - N/A   Unknown
3:52 PM 55.9 °F - 32.0 °F 40% 30.20 in - SSE 9.2 mph - N/A   Unknown
4:52 PM 53.1 °F - 30.9 °F 43% 30.18 in - SSE 5.8 mph - N/A   Unknown
5:52 PM 50.0 °F - 30.9 °F 48% 30.19 in - SE 4.6 mph - N/A   Unknown
6:52 PM 48.9 °F - 32.0 °F 52% 30.17 in - SE 9.2 mph - N/A   Unknown
7:52 PM 46.9 °F - 32.0 °F 56% 30.16 in - SE 5.8 mph - N/A   Unknown
8:52 PM 46.0 °F 42.5 °F 33.1 °F 61% 30.13 in - SE 6.9 mph - N/A   Unknown
9:52 PM 45.0 °F 41.2 °F 32.0 °F 60% 30.11 in - SSE 6.9 mph - N/A   Unknown
10:52 PM 46.0 °F 41.0 °F 34.0 °F 63% 30.08 in - SSE 10.4 mph - N/A   Unknown
11:52 PM 46.0 °F 41.9 °F 34.0 °F 63% 30.07 in - SSE 8.1 mph - N/A   Unknown